Time,TemperatureF,DewpointF,PressureIn,WindDirection,WindDirectionDegrees,WindSpeedMPH,WindSpeedGustMPH,Humidity,HourlyPrecipIn,Conditions,Clouds,dailyrainin,SolarRadiationWatts/m^2,SoftwareType,DateUTC
2013-05-08 00:21:00,33.0,29.0,-100.00,SE,134,4.0,7.0,84,0.00,,,0.19,0.000000,,2013-05-08 06:21:00,
2013-05-08 00:32:00,33.0,29.0,-100.00,SE,134,4.0,7.0,84,0.00,,,0.19,0.000000,,2013-05-08 06:32:00,
2013-05-08 00:41:00,33.0,29.0,-100.00,SE,134,4.0,7.0,84,0.00,,,0.19,0.000000,,2013-05-08 06:41:00,
2013-05-08 00:51:00,33.0,29.0,-100.00,SE,134,4.0,7.0,84,0.00,,,0.19,0.000000,,2013-05-08 06:51:00,
2013-05-08 01:21:00,34.0,28.0,-100.00,East,87,4.0,8.0,79,0.00,,,0.19,0.000000,,2013-05-08 07:21:00,
2013-05-08 01:31:00,34.0,28.0,-100.00,East,87,4.0,8.0,79,0.00,,,0.19,0.000000,,2013-05-08 07:31:00,
2013-05-08 01:42:00,34.0,28.0,-100.00,East,87,4.0,8.0,79,0.00,,,0.19,0.000000,,2013-05-08 07:42:00,
2013-05-08 01:52:00,34.0,28.0,-100.00,East,87,4.0,8.0,79,0.00,,,0.19,0.000000,,2013-05-08 07:52:00,
2013-05-08 02:21:00,34.0,28.0,-100.00,ESE,104,4.0,6.0,77,0.00,,,0.19,0.000000,,2013-05-08 08:21:00,
2013-05-08 02:31:00,34.0,28.0,-100.00,ESE,104,4.0,6.0,77,0.00,,,0.19,0.000000,,2013-05-08 08:31:00,
2013-05-08 02:42:00,34.0,28.0,-100.00,ESE,104,4.0,6.0,77,0.00,,,0.19,0.000000,,2013-05-08 08:42:00,
2013-05-08 02:51:00,34.0,28.0,-100.00,ESE,104,4.0,6.0,77,0.00,,,0.19,0.000000,,2013-05-08 08:51:00,
2013-05-08 03:21:00,33.0,27.0,-100.00,ESE,112,3.0,5.0,77,0.00,,,0.19,1.000000,,2013-05-08 09:21:00,
2013-05-08 03:32:00,33.0,27.0,-100.00,ESE,112,3.0,5.0,77,0.00,,,0.19,1.000000,,2013-05-08 09:32:00,
2013-05-08 03:42:00,33.0,27.0,-100.00,ESE,112,3.0,5.0,77,0.00,,,0.19,1.000000,,2013-05-08 09:42:00,
2013-05-08 03:52:00,33.0,27.0,-100.00,ESE,112,3.0,5.0,77,0.00,,,0.19,1.000000,,2013-05-08 09:52:00,
2013-05-08 04:22:00,34.0,26.0,-100.00,ENE,69,5.0,6.0,71,0.00,,,0.19,0.000000,,2013-05-08 10:22:00,
2013-05-08 04:33:00,34.0,26.0,-100.00,ENE,69,5.0,6.0,71,0.00,,,0.19,0.000000,,2013-05-08 10:33:00,
2013-05-08 04:42:00,34.0,26.0,-100.00,ENE,69,5.0,6.0,71,0.00,,,0.19,0.000000,,2013-05-08 10:42:00,
2013-05-08 04:52:00,34.0,26.0,-100.00,ENE,69,5.0,6.0,71,0.00,,,0.19,0.000000,,2013-05-08 10:52:00,
2013-05-08 05:22:00,32.0,24.0,-100.00,NE,41,4.0,7.0,72,0.00,,,0.19,0.000000,,2013-05-08 11:22:00,
2013-05-08 05:32:00,32.0,24.0,-100.00,NE,41,4.0,7.0,72,0.00,,,0.19,0.000000,,2013-05-08 11:32:00,
2013-05-08 05:42:00,32.0,24.0,-100.00,NE,41,4.0,7.0,72,0.00,,,0.19,0.000000,,2013-05-08 11:42:00,
2013-05-08 05:52:00,32.0,24.0,-100.00,NE,41,4.0,7.0,72,0.00,,,0.19,0.000000,,2013-05-08 11:52:00,
2013-05-08 06:21:00,33.0,24.0,-100.00,SE,125,2.0,4.0,70,0.00,,,0.19,1.000000,,2013-05-08 12:21:00,
2013-05-08 06:31:00,33.0,24.0,-100.00,SE,125,2.0,4.0,70,0.00,,,0.19,1.000000,,2013-05-08 12:31:00,
2013-05-08 06:41:00,33.0,24.0,-100.00,SE,125,2.0,4.0,70,0.00,,,0.19,1.000000,,2013-05-08 12:41:00,
2013-05-08 06:51:00,33.0,24.0,-100.00,SE,125,2.0,4.0,70,0.00,,,0.19,1.000000,,2013-05-08 12:51:00,
2013-05-08 07:21:00,31.0,29.0,-100.00,SSW,207,2.0,7.0,92,0.00,,,0.19,23.000000,,2013-05-08 13:21:00,
2013-05-08 07:32:00,31.0,29.0,-100.00,SSW,207,2.0,7.0,92,0.00,,,0.19,23.000000,,2013-05-08 13:32:00,
2013-05-08 07:42:00,31.0,29.0,-100.00,SSW,207,2.0,7.0,92,0.00,,,0.19,23.000000,,2013-05-08 13:42:00,
2013-05-08 07:52:00,31.0,29.0,-100.00,SSW,207,2.0,7.0,92,0.00,,,0.19,23.000000,,2013-05-08 13:52:00,
2013-05-08 08:21:00,33.0,30.0,-100.00,ESE,112,5.0,6.0,88,0.00,,,0.19,119.000000,,2013-05-08 14:21:00,
2013-05-08 08:31:00,33.0,30.0,-100.00,ESE,112,5.0,6.0,88,0.00,,,0.19,119.000000,,2013-05-08 14:31:00,
2013-05-08 08:42:00,33.0,30.0,-100.00,ESE,112,5.0,6.0,88,0.00,,,0.19,119.000000,,2013-05-08 14:42:00,
2013-05-08 08:51:00,33.0,30.0,-100.00,ESE,112,5.0,6.0,88,0.00,,,0.19,119.000000,,2013-05-08 14:51:00,
2013-05-08 09:21:00,35.0,31.0,-100.00,SSE,158,7.0,8.0,84,0.00,,,0.13,262.000000,,2013-05-08 15:21:00,
2013-05-08 09:33:00,35.0,31.0,-100.00,SSE,158,7.0,8.0,84,0.00,,,0.13,262.000000,,2013-05-08 15:33:00,
2013-05-08 09:42:00,35.0,31.0,-100.00,SSE,158,7.0,8.0,84,0.00,,,0.13,262.000000,,2013-05-08 15:42:00,
2013-05-08 09:52:00,35.0,31.0,-100.00,SSE,158,7.0,8.0,84,0.00,,,0.13,262.000000,,2013-05-08 15:52:00,
2013-05-08 10:23:00,33.0,30.0,-100.00,SSE,160,7.0,9.0,89,0.00,,,-99.99,208.000000,,2013-05-08 16:23:00,
2013-05-08 10:33:00,33.0,30.0,-100.00,SSE,160,7.0,9.0,89,0.00,,,-99.99,208.000000,,2013-05-08 16:33:00,
2013-05-08 10:42:00,33.0,30.0,-100.00,SSE,160,7.0,9.0,89,0.00,,,-99.99,208.000000,,2013-05-08 16:42:00,
2013-05-08 10:52:00,33.0,30.0,-100.00,SSE,160,7.0,9.0,89,0.00,,,-99.99,208.000000,,2013-05-08 16:52:00,
2013-05-08 11:22:00,33.0,31.0,-100.00,SSE,149,5.0,10.0,94,0.01,,,-99.99,227.000000,,2013-05-08 17:22:00,
2013-05-08 11:31:00,33.0,31.0,-100.00,SSE,149,5.0,10.0,94,0.01,,,-99.99,227.000000,,2013-05-08 17:31:00,
2013-05-08 11:41:00,33.0,31.0,-100.00,SSE,149,5.0,10.0,94,0.01,,,-99.99,227.000000,,2013-05-08 17:41:00,
2013-05-08 11:52:00,33.0,31.0,-100.00,SSE,149,5.0,10.0,94,0.01,,,-99.99,227.000000,,2013-05-08 17:52:00,
2013-05-08 13:21:00,36.0,33.0,-100.00,SSW,193,7.0,9.0,87,-99.99,,,0.05,338.000000,,2013-05-08 19:21:00,
2013-05-08 13:32:00,36.0,33.0,-100.00,SSW,193,7.0,9.0,87,-99.99,,,0.05,338.000000,,2013-05-08 19:32:00,
2013-05-08 13:41:00,36.0,33.0,-100.00,SSW,193,7.0,9.0,87,-99.99,,,0.05,338.000000,,2013-05-08 19:41:00,
2013-05-08 13:52:00,36.0,33.0,-100.00,SSW,193,7.0,9.0,87,-99.99,,,0.05,338.000000,,2013-05-08 19:52:00,
2013-05-08 14:22:00,34.0,32.0,-100.00,SSE,153,3.0,10.0,94,0.01,,,0.06,116.000000,,2013-05-08 20:22:00,
2013-05-08 14:32:00,34.0,32.0,-100.00,SSE,153,3.0,10.0,94,0.01,,,0.06,116.000000,,2013-05-08 20:32:00,
2013-05-08 14:41:00,34.0,32.0,-100.00,SSE,153,3.0,10.0,94,0.01,,,0.06,116.000000,,2013-05-08 20:41:00,
2013-05-08 14:51:00,34.0,32.0,-100.00,SSE,153,3.0,10.0,94,0.01,,,0.06,116.000000,,2013-05-08 20:51:00,
2013-05-08 15:21:00,38.0,34.0,-100.00,SSE,147,2.0,3.0,86,0.00,,,0.06,80.000000,,2013-05-08 21:21:00,
2013-05-08 15:33:00,38.0,34.0,-100.00,SSE,147,2.0,3.0,86,0.00,,,0.06,80.000000,,2013-05-08 21:33:00,
2013-05-08 15:43:00,38.0,34.0,-100.00,SSE,147,2.0,3.0,86,0.00,,,0.06,80.000000,,2013-05-08 21:43:00,
2013-05-08 15:52:00,38.0,34.0,-100.00,SSE,147,2.0,3.0,86,0.00,,,0.06,80.000000,,2013-05-08 21:52:00,
2013-05-08 16:22:00,33.0,31.0,-100.00,SSE,148,5.0,8.0,91,0.19,,,0.25,257.000000,,2013-05-08 22:22:00,
2013-05-08 16:33:00,33.0,31.0,-100.00,SSE,148,5.0,8.0,91,0.19,,,0.25,257.000000,,2013-05-08 22:33:00,
2013-05-08 16:42:00,33.0,31.0,-100.00,SSE,148,5.0,8.0,91,0.19,,,0.25,257.000000,,2013-05-08 22:42:00,
2013-05-08 16:52:00,33.0,31.0,-100.00,SSE,148,5.0,8.0,91,0.19,,,0.25,257.000000,,2013-05-08 22:52:00,
2013-05-08 17:22:00,34.0,31.0,-100.00,South,174,7.0,10.0,89,0.09,,,0.34,278.000000,,2013-05-08 23:22:00,
2013-05-08 17:32:00,34.0,31.0,-100.00,South,174,7.0,10.0,89,0.09,,,0.34,278.000000,,2013-05-08 23:32:00,
2013-05-08 17:42:00,34.0,31.0,-100.00,South,174,7.0,10.0,89,0.09,,,0.34,278.000000,,2013-05-08 23:42:00,
2013-05-08 17:52:00,34.0,31.0,-100.00,South,174,7.0,10.0,89,0.09,,,0.34,278.000000,,2013-05-08 23:52:00,
2013-05-08 18:21:00,31.0,29.0,-100.00,SSE,147,3.0,8.0,94,0.01,,,0.35,97.000000,,2013-05-09 00:21:00,
2013-05-08 18:32:00,31.0,29.0,-100.00,SSE,147,3.0,8.0,94,0.01,,,0.35,97.000000,,2013-05-09 00:32:00,
2013-05-08 18:42:00,31.0,29.0,-100.00,SSE,147,3.0,8.0,94,0.01,,,0.35,97.000000,,2013-05-09 00:42:00,
2013-05-08 18:51:00,31.0,29.0,-100.00,SSE,147,3.0,8.0,94,0.01,,,0.35,97.000000,,2013-05-09 00:51:00,
2013-05-08 19:22:00,32.0,30.0,-100.00,SE,133,2.0,4.0,93,0.00,,,0.35,26.000000,,2013-05-09 01:22:00,
2013-05-08 19:32:00,32.0,30.0,-100.00,SE,133,2.0,4.0,93,0.00,,,0.35,26.000000,,2013-05-09 01:32:00,
2013-05-08 19:42:00,32.0,30.0,-100.00,SE,133,2.0,4.0,93,0.00,,,0.35,26.000000,,2013-05-09 01:42:00,
2013-05-08 19:52:00,32.0,30.0,-100.00,SE,133,2.0,4.0,93,0.00,,,0.35,26.000000,,2013-05-09 01:52:00,
2013-05-08 20:21:00,31.0,30.0,-100.00,SE,140,3.0,4.0,95,0.01,,,0.35,7.000000,,2013-05-09 02:21:00,
2013-05-08 20:32:00,31.0,30.0,-100.00,SE,140,3.0,4.0,95,0.01,,,0.35,7.000000,,2013-05-09 02:32:00,
2013-05-08 20:41:00,31.0,30.0,-100.00,SE,140,3.0,4.0,95,0.01,,,0.35,7.000000,,2013-05-09 02:41:00,
2013-05-08 20:52:00,31.0,30.0,-100.00,SE,140,3.0,4.0,95,0.01,,,0.35,7.000000,,2013-05-09 02:52:00,
2013-05-08 21:21:00,31.0,30.0,-100.00,ESE,115,3.0,4.0,97,0.00,,,-99.99,1.000000,,2013-05-09 03:21:00,
2013-05-08 21:33:00,31.0,30.0,-100.00,ESE,115,3.0,4.0,97,0.00,,,-99.99,1.000000,,2013-05-09 03:33:00,
2013-05-08 21:43:00,31.0,30.0,-100.00,ESE,115,3.0,4.0,97,0.00,,,-99.99,1.000000,,2013-05-09 03:43:00,
2013-05-08 21:52:00,31.0,30.0,-100.00,ESE,115,3.0,4.0,97,0.00,,,-99.99,1.000000,,2013-05-09 03:52:00,
2013-05-08 22:23:00,30.0,29.0,-100.00,ENE,76,0.0,3.0,97,0.00,,,0.35,0.000000,,2013-05-09 04:23:00,
2013-05-08 22:33:00,30.0,29.0,-100.00,ENE,76,0.0,3.0,97,0.00,,,0.35,0.000000,,2013-05-09 04:33:00,
2013-05-08 22:43:00,30.0,29.0,-100.00,ENE,76,0.0,3.0,97,0.00,,,0.35,0.000000,,2013-05-09 04:43:00,
2013-05-08 22:52:00,30.0,29.0,-100.00,ENE,76,0.0,3.0,97,0.00,,,0.35,0.000000,,2013-05-09 04:52:00,
2013-05-08 23:22:00,31.0,30.0,-100.00,East,100,0.0,0.0,97,0.00,,,0.35,1.000000,,2013-05-09 05:22:00,
2013-05-08 23:32:00,31.0,30.0,-100.00,East,100,0.0,0.0,97,0.00,,,0.35,1.000000,,2013-05-09 05:32:00,
2013-05-08 23:42:00,31.0,30.0,-100.00,East,100,0.0,0.0,97,0.00,,,0.35,1.000000,,2013-05-09 05:42:00,
2013-05-08 23:51:00,31.0,30.0,-100.00,East,100,0.0,0.0,97,0.00,,,0.35,1.000000,,2013-05-09 05:51:00,